When you browse on this site, cookies collect data to enhance your experience and personalize the content and advertising you see.
Visit our Privacy Policy to learn more. By continuing to use the site, you agree to this use of cookies and data.
  • en Suisse
  • Liste des pays
  • À 7 jours
  • Température de l'eau
  • Carte météo
  • Widgets météo
  • user-avatar
    Se connecter

    Météo par heure à Cairns

    Ce jour, 5 Avril, Dimanche

    Heure Température Précipitation Vent Pression Humidité
    00:00 +23°C° 0 mm 0 m/s 757 mmHg 94%
    01:00 +23°C° 0 mm 0 m/s 757 mmHg 94%
    02:00 +25°C° 0 mm 1 m/s 757 mmHg 93%
    03:00 +25°C° 0 mm 1 m/s 757 mmHg 92%
    04:00 +25°C° 0 mm 1 m/s 757 mmHg 92%
    05:00 +25°C° 0 mm 1 m/s 757 mmHg 92%
    06:00 +23°C° 0 mm 0 m/s 757 mmHg 92%
    07:00 +23°C° 0 mm 0 m/s 757 mmHg 92%
    08:00 +28°C° 0 mm 1 m/s 758 mmHg 81%
    09:00 +30°C° 0 mm 1 m/s 758 mmHg 71%
    10:00 +33°C° 0 mm 1 m/s 758 mmHg 60%
    11:00 +34°C° 0 mm 2 m/s 758 mmHg 58%
    12:00 +35°C° 0 mm 2 m/s 757 mmHg 56%
    13:00 +35°C° 0 mm 2 m/s 756 mmHg 53%
    14:00 +35°C° 0 mm 3 m/s 756 mmHg 58%
    15:00 +34°C° 0 mm 3 m/s 756 mmHg 62%
    16:00 +33°C° 0 mm 3 m/s 756 mmHg 66%
    17:00 +30°C° 0 mm 3 m/s 756 mmHg 75%
    18:00 +28°C° 0 mm 2 m/s 757 mmHg 83%
    19:00 +26°C° 0 mm 2 m/s 757 mmHg 92%
    20:00 +26°C° 0 mm 2 m/s 758 mmHg 93%
    21:00 +25°C° 0 mm 2 m/s 758 mmHg 94%
    22:00 +25°C° 0 mm 2 m/s 759 mmHg 96%
    23:00 +25°C° 0 mm 2 m/s 759 mmHg 96%

    Demain, 6 Avril, Lundi

    Heure Température Précipitation Vent Pression Humidité
    00:00 +25°C° 0 mm 2 m/s 758 mmHg 96%
    01:00 +25°C° 0 mm 2 m/s 758 mmHg 96%
    02:00 +24°C° 0 mm 2 m/s 758 mmHg 96%
    03:00 +24°C° 0 mm 2 m/s 757 mmHg 96%
    04:00 +24°C° 0 mm 2 m/s 757 mmHg 96%
    05:00 +24°C° 0 mm 2 m/s 758 mmHg 95%
    06:00 +25°C° 0 mm 2 m/s 758 mmHg 94%
    07:00 +25°C° 0 mm 2 m/s 759 mmHg 93%
    08:00 +27°C° 0 mm 2 m/s 759 mmHg 83%
    09:00 +29°C° 0 mm 3 m/s 759 mmHg 73%
    10:00 +33°C° 0 mm 3 m/s 759 mmHg 63%
    11:00 +33°C° 0 mm 3 m/s 759 mmHg 59%
    12:00 +34°C° 0 mm 4 m/s 758 mmHg 56%
    13:00 +35°C° 0 mm 4 m/s 757 mmHg 53%
    14:00 +34°C° 0 mm 4 m/s 757 mmHg 56%
    15:00 +33°C° 0 mm 5 m/s 756 mmHg 59%
    16:00 +33°C° 0 mm 5 m/s 756 mmHg 62%
    17:00 +30°C° 0 mm 5 m/s 757 mmHg 71%
    18:00 +28°C° 0 mm 4 m/s 757 mmHg 81%
    19:00 +26°C° 0 mm 4 m/s 758 mmHg 90%
    20:00 +26°C° 0 mm 4 m/s 758 mmHg 92%
    21:00 +25°C° 0 mm 3 m/s 758 mmHg 94%
    22:00 +25°C° 0 mm 3 m/s 758 mmHg 97%
    23:00 +24°C° 0 mm 3 m/s 758 mmHg 97%

    Après-demain, 7 Avril, Mardi

    Heure Température Précipitation Vent Pression Humidité
    00:00 +24°C° 0 mm 3 m/s 758 mmHg 97%
    01:00 +24°C° 0 mm 3 m/s 758 mmHg 97%
    02:00 +24°C° 0 mm 2 m/s 758 mmHg 97%
    03:00 +24°C° 0 mm 2 m/s 757 mmHg 97%
    04:00 +24°C° 0 mm 2 m/s 757 mmHg 97%
    05:00 +24°C° 0.1 mm 2 m/s 758 mmHg 97%
    06:00 +24°C° 0.1 mm 3 m/s 758 mmHg 96%
    07:00 +24°C° 0.1 mm 3 m/s 758 mmHg 95%
    08:00 +26°C° 0.1 mm 3 m/s 758 mmHg 85%
    09:00 +28°C° 0.1 mm 4 m/s 759 mmHg 74%
    10:00 +32°C° 0.1 mm 5 m/s 759 mmHg 64%
    11:00 +32°C° 0 mm 5 m/s 758 mmHg 62%
    12:00 +32°C° 0 mm 5 m/s 758 mmHg 60%
    13:00 +33°C° 0 mm 5 m/s 757 mmHg 58%
    14:00 +32°C° 0 mm 5 m/s 757 mmHg 60%
    15:00 +32°C° 0 mm 5 m/s 757 mmHg 62%
    16:00 +30°C° 0 mm 5 m/s 756 mmHg 64%
    17:00 +29°C° 0 mm 5 m/s 757 mmHg 73%
    18:00 +27°C° 0 mm 4 m/s 757 mmHg 82%
    19:00 +25°C° 0 mm 4 m/s 758 mmHg 92%
    20:00 +25°C° 0 mm 4 m/s 758 mmHg 93%
    21:00 +23°C° 0 mm 4 m/s 758 mmHg 95%
    22:00 +24°C° 0 mm 3 m/s 759 mmHg 97%
    23:00 +24°C° 0 mm 3 m/s 758 mmHg 97%

    8 Avril, Mercredi

    Heure Température Précipitation Vent Pression Humidité
    00:00 +22°C° 0 mm 3 m/s 758 mmHg 97%
    01:00 +23°C° 0 mm 2 m/s 758 mmHg 97%
    02:00 +22°C° 0 mm 3 m/s 758 mmHg 97%
    03:00 +22°C° 0 mm 3 m/s 758 mmHg 97%
    04:00 +22°C° 0 mm 3 m/s 757 mmHg 97%
    05:00 +22°C° 0 mm 3 m/s 758 mmHg 97%
    06:00 +22°C° 0 mm 3 m/s 758 mmHg 96%
    07:00 +22°C° 0 mm 3 m/s 758 mmHg 96%
    08:00 +26°C° 0 mm 3 m/s 759 mmHg 84%
    09:00 +28°C° 0 mm 4 m/s 759 mmHg 73%
    10:00 +32°C° 0 mm 4 m/s 759 mmHg 61%
    11:00 +32°C° 0 mm 4 m/s 758 mmHg 58%
    12:00 +33°C° 0 mm 5 m/s 758 mmHg 55%
    13:00 +34°C° 0 mm 5 m/s 757 mmHg 53%
    14:00 +33°C° 0 mm 5 m/s 757 mmHg 55%
    15:00 +32°C° 0 mm 5 m/s 757 mmHg 58%
    16:00 +32°C° 0 mm 5 m/s 757 mmHg 60%
    17:00 +29°C° 0 mm 5 m/s 757 mmHg 68%
    18:00 +27°C° 0 mm 4 m/s 758 mmHg 76%
    19:00 +23°C° 0 mm 4 m/s 758 mmHg 83%
    20:00 +24°C° 0 mm 3 m/s 759 mmHg 86%
    21:00 +22°C° 0 mm 3 m/s 759 mmHg 89%
    22:00 +22°C° 0 mm 3 m/s 760 mmHg 92%
    23:00 +23°C° 0 mm 2 m/s 759 mmHg 93%

    9 Avril, Jeudi

    Heure Température Précipitation Vent Pression Humidité
    00:00 +23°C° 0 mm 2 m/s 759 mmHg 94%
    01:00 +23°C° 0 mm 2 m/s 759 mmHg 95%
    02:00 +23°C° 0 mm 2 m/s 759 mmHg 96%
    03:00 +23°C° 0 mm 2 m/s 759 mmHg 97%
    04:00 +23°C° 0 mm 2 m/s 758 mmHg 97%
    05:00 +23°C° 0 mm 2 m/s 759 mmHg 97%
    06:00 +23°C° 0 mm 2 m/s 759 mmHg 96%
    07:00 +23°C° 0 mm 2 m/s 760 mmHg 95%
    08:00 +26°C° 0 mm 3 m/s 760 mmHg 84%
    09:00 +28°C° 0 mm 3 m/s 760 mmHg 73%
    10:00 +31°C° 0 mm 3 m/s 760 mmHg 62%
    11:00 +33°C° 0 mm 3 m/s 760 mmHg 58%
    12:00 +33°C° 0 mm 3 m/s 759 mmHg 55%
    13:00 +34°C° 0 mm 4 m/s 759 mmHg 51%
    14:00 +34°C° 0 mm 4 m/s 758 mmHg 54%
    15:00 +33°C° 0 mm 4 m/s 758 mmHg 57%
    16:00 +32°C° 0 mm 4 m/s 758 mmHg 61%
    17:00 +30°C° 0.1 mm 4 m/s 759 mmHg 71%
    18:00 +28°C° 0.1 mm 4 m/s 759 mmHg 81%
    19:00 +26°C° 0.1 mm 3 m/s 760 mmHg 91%
    20:00 +25°C° 0.3 mm 3 m/s 760 mmHg 93%
    21:00 +25°C° 0.3 mm 3 m/s 761 mmHg 95%
    22:00 +25°C° 0.3 mm 3 m/s 761 mmHg 96%
    23:00 +25°C° 1.2 mm 3 m/s 761 mmHg 96%

    10 Avril, Vendredi

    Heure Température Précipitation Vent Pression Humidité
    00:00 +25°C° 1.2 mm 3 m/s 761 mmHg 97%
    01:00 +25°C° 1.2 mm 4 m/s 761 mmHg 97%
    02:00 +25°C° 0.7 mm 4 m/s 761 mmHg 97%
    03:00 +25°C° 0.7 mm 4 m/s 761 mmHg 97%
    04:00 +23°C° 0.7 mm 4 m/s 760 mmHg 97%
    05:00 +25°C° 0.1 mm 4 m/s 761 mmHg 97%
    06:00 +25°C° 0.1 mm 3 m/s 761 mmHg 97%
    07:00 +25°C° 0.1 mm 3 m/s 761 mmHg 97%
    08:00 +27°C° 0.1 mm 4 m/s 762 mmHg 90%
    09:00 +28°C° 0.1 mm 4 m/s 762 mmHg 83%
    10:00 +30°C° 0.1 mm 4 m/s 762 mmHg 76%
    11:00 +30°C° 0.2 mm 4 m/s 762 mmHg 74%
    12:00 +30°C° 0.2 mm 5 m/s 761 mmHg 71%
    13:00 +32°C° 0.2 mm 5 m/s 761 mmHg 68%
    14:00 +30°C° 0.1 mm 5 m/s 760 mmHg 71%
    15:00 +30°C° 0.1 mm 5 m/s 760 mmHg 73%
    16:00 +29°C° 0.1 mm 5 m/s 760 mmHg 75%
    17:00 +28°C° 0.1 mm 5 m/s 760 mmHg 81%
    18:00 +27°C° 0.1 mm 5 m/s 761 mmHg 87%
    19:00 +26°C° 0.1 mm 4 m/s 761 mmHg 93%
    20:00 +25°C° 0.1 mm 4 m/s 761 mmHg 95%
    21:00 +25°C° 0.1 mm 4 m/s 761 mmHg 96%
    22:00 +23°C° 0.1 mm 4 m/s 762 mmHg 98%
    23:00 +23°C° 0.2 mm 4 m/s 761 mmHg 98%
    Voir plus